Glens Falls, NY

8:08 AM EST on November 12, 2019 (GMT -0500)
Bennett Memorial

Weather History for KGFL - September, 2019

Change the Weather History Date:

Monday, September 9, 2019

  Actual Average Record
Temperature  
Mean Temperature 56 °F 61 °F  
Max Temperature 69 °F 73 °F 92 °F (1959)
Min Temperature 42 °F 49 °F 36 °F (1980)
Degree Days  
Heating Degree Days 9 5  
Month to date heating degree days 44 36  
Since 1 July heating degree days 72 102  
Cooling Degree Days 0 1  
Month to date cooling degree days 3 14  
Year to date cooling degree days 398 341  
Growing Degree Days 6 (Base 50)    
Moisture  
Dew Point 47 °F    
Average Humidity 75    
Maximum Humidity 100    
Minimum Humidity 49    
Precipitation  
Precipitation 0.00 in 0.11 in 2.10 in (1929)
Month to date precipitation 0.91 0.92  
Year to date precipitation 29.70 26.73  
Sea Level Pressure  
Sea Level Pressure 30.27 in    
Wind  
Wind Speed 2 mph (ENE)    
Max Wind Speed 10 mph    
Max Gust Speed 15 mph    
Visibility 6 miles    
Events Fog    
T = Trace of Precipitation, MM = Missing Value Source: NWS Daily Summary

Daily Weather History Graph

Daily Weather History Graph

Search for Another Location

Airport or City:

Astronomy

Sep. 09, 2019 Rise Set
Actual Time 6:27 AM EDT 7:15 PM EDT
Civil Twilight 5:58 AM EDT 7:44 PM EDT
Nautical Twilight 5:23 AM EDT 8:18 PM EDT
Astronomical Twilight 4:47 AM EDT 8:54 PM EDT
Moon 5:17 PM EDT (9/9) 1:47 AM EDT (9/9)
Length of Visible Light 13h 46m
Length of Day
12h 48m
Waxing Gibbous, 83% of the Moon is Illuminated
Sep 9
Waxing Gibbous
Sep 14
Full
Sep 21
Last Quarter
Sep 28
New
Oct 5
First Quarter

Hourly Weather History & Observations

Time (EDT) Temp. Windchill Dew Point Humidity Pressure Visibility Wind Dir Wind Speed Gust Speed Precip Events Conditions
12:53 AM 55.0 °F - 48.9 °F 80% 30.22 in 10.0 mi North 4.6 mph - N/A   Mostly Cloudy
1:53 AM 54.0 °F - 48.9 °F 83% 30.22 in 10.0 mi NNW 3.5 mph - N/A   Mostly Cloudy
2:39 AM 48.0 °F - 46.9 °F 96% 30.22 in 1.8 mi Calm Calm - N/A   Partly Cloudy
2:53 AM 46.9 °F - 46.0 °F 97% 30.23 in 1.8 mi Calm Calm - N/A   Partly Cloudy
2:59 AM 46.9 °F - 46.0 °F 97% 30.22 in 4.0 mi Calm Calm - N/A   Partly Cloudy
3:06 AM 46.9 °F - 46.0 °F 97% 30.22 in 1.5 mi Calm Calm - N/A   Clear
3:15 AM 46.9 °F - 46.0 °F 97% 30.22 in 0.5 mi Calm Calm - N/A Fog Fog
3:32 AM 45.0 °F - 44.1 °F 97% 30.22 in 0.5 mi Calm Calm - N/A Fog Fog
3:37 AM 46.9 °F - 44.1 °F 90% 30.23 in 1.2 mi Calm Calm - N/A   Partly Cloudy
3:40 AM 46.9 °F - 45.0 °F 93% 30.23 in 4.0 mi Calm Calm - N/A   Partly Cloudy
3:53 AM 45.0 °F - 44.1 °F 97% 30.24 in 7.0 mi Calm Calm - N/A   Clear
3:58 AM 45.0 °F - 44.1 °F 97% 30.23 in 1.8 mi Calm Calm - N/A   Clear
4:08 AM 45.0 °F - 44.1 °F 97% 30.23 in 0.8 mi Calm Calm - N/A   Clear
4:40 AM 44.1 °F 42.5 °F 43.0 °F 96% 30.24 in 2.0 mi NW 3.5 mph - N/A   Clear
4:53 AM 45.0 °F - 44.1 °F 97% 30.25 in 2.5 mi Calm Calm - N/A   Partly Cloudy
5:04 AM 44.1 °F - 42.1 °F 93% 30.24 in 7.0 mi Calm Calm - N/A   Mostly Cloudy
5:53 AM 44.1 °F - 43.0 °F 96% 30.26 in 2.0 mi Calm Calm - N/A   Mostly Cloudy
6:03 AM 44.1 °F - 42.1 °F 93% 30.26 in 1.2 mi Calm Calm - N/A   Mostly Cloudy
6:39 AM 43.0 °F - 42.1 °F 97% 30.27 in 0.8 mi Calm Calm - N/A   Overcast
6:53 AM 44.1 °F - 44.1 °F 100% 30.29 in 0.5 mi Calm Calm - N/A Fog Fog
7:07 AM 45.0 °F - 44.1 °F 97% 30.28 in 2.0 mi Calm Calm - N/A   Mostly Cloudy
7:15 AM 46.0 °F - 45.0 °F 96% 30.29 in 10.0 mi Calm Calm - N/A   Mostly Cloudy
7:53 AM 50.0 °F - 48.9 °F 96% 30.30 in 10.0 mi East 3.5 mph - N/A   Overcast
8:53 AM 55.9 °F - 51.1 °F 84% 30.32 in 10.0 mi East 4.6 mph - N/A   Partly Cloudy
9:53 AM 60.1 °F - 51.1 °F 72% 30.33 in 10.0 mi East 5.8 mph - N/A   Partly Cloudy
10:16 AM 61.0 °F - 51.1 °F 70% 30.32 in 10.0 mi Calm Calm - N/A   Mostly Cloudy
10:44 AM 61.0 °F - 50.0 °F 67% 30.32 in 10.0 mi North 3.5 mph - N/A   Scattered Clouds
10:53 AM 62.1 °F - 50.0 °F 65% 30.32 in 10.0 mi Calm Calm - N/A   Partly Cloudy
11:20 AM 64.0 °F - 50.0 °F 60% 30.31 in 10.0 mi Variable 3.5 mph - N/A   Mostly Cloudy
11:36 AM 63.0 °F - 50.0 °F 63% 30.30 in 10.0 mi East 3.5 mph - N/A   Mostly Cloudy
11:53 AM 64.0 °F - 50.0 °F 60% 30.30 in 10.0 mi East 8.1 mph - N/A   Partly Cloudy
12:53 PM 64.9 °F - 48.0 °F 54% 30.29 in 10.0 mi East 3.5 mph - N/A   Scattered Clouds
1:53 PM 66.0 °F - 48.0 °F 52% 30.27 in 10.0 mi NNE 6.9 mph - N/A   Mostly Cloudy
2:53 PM 66.0 °F - 48.0 °F 52% 30.27 in 10.0 mi Calm Calm - N/A   Mostly Cloudy
3:53 PM 68.0 °F - 48.9 °F 50% 30.27 in 10.0 mi East 4.6 mph - N/A   Scattered Clouds
4:53 PM 68.0 °F - 48.9 °F 50% 30.26 in 10.0 mi South 3.5 mph - N/A   Overcast
5:53 PM 66.9 °F - 48.9 °F 52% 30.27 in 10.0 mi East 4.6 mph - N/A   Mostly Cloudy
6:53 PM 66.0 °F - 50.0 °F 56% 30.28 in 10.0 mi NE 3.5 mph - N/A   Clear
7:53 PM 55.9 °F - 52.0 °F 87% 30.30 in 10.0 mi Calm Calm - N/A   Clear
8:53 PM 53.1 °F - 51.1 °F 93% 30.31 in 10.0 mi Calm Calm - N/A   Clear
9:03 PM 53.1 °F - 50.0 °F 89% 30.31 in 2.5 mi Calm Calm - N/A   Clear
9:11 PM 53.1 °F - 50.0 °F 89% 30.31 in 10.0 mi Calm Calm - N/A   Clear
9:53 PM 51.1 °F - 48.0 °F 89% 30.32 in 10.0 mi Calm Calm - N/A   Clear
10:53 PM 50.0 °F - 48.0 °F 93% 30.33 in 10.0 mi Calm Calm - N/A   Clear
11:53 PM 48.0 °F - 46.0 °F 93% 30.34 in 2.5 mi Calm Calm - N/A   Clear